Flag for Germany Weather past 2 weeks in Kassel, Hesse, Germany

Now
77 °F

Sunny.


Feels Like: 79 °F
Forecast: 63 / 96 °F
Wind: 2 mph from North

Location: Kassel / Calden

Current Time: Jul 3, 2015 at 12:51:17 PM

Latest Report: Jul 3, 2015 at 12:20 PM


Visibility: 10 mi

Pressure: 30.27 "Hg

Humidity: 65%

Dew point: 64 °F

Location of KasselLocation

Historic Weather in Kassel — Graph

°F

Kassel temperature yesterday

Maximum temperature yesterday: 91 °F (at 1:50 PM)
Minimum temperature yesterday: 63 °F (at 5:50 AM)
Average temperature yesterday: 83 °F

Past Weeks' High & Low Weather Summary

 TemperatureHumidityPressure
High91 °F (Jul 2, 1:50 PM)100% (Jun 23, 6:50 AM)30.27 "Hg (Jun 23, 6:50 AM)
Low46 °F (Jun 23, 5:50 AM)30% (Jun 22, 8:20 AM)29.68 "Hg (Jun 22, 8:20 PM)
Average64 °F66%30.07 "Hg
* Reported Jun 18 11:20 AM — Jul 3 11:20 AM, Kassel, Weather by CustomWeather, © 2015

Note: Actual official high and low records may vary slightly from our data, if they occured in-between our weather recording intervals... More about our weather records

Advertising

Kassel weather history for previous 24 hours

 ConditionsComfort  
Time TempWeatherWind HumidityBarometerVisibility
11:20 AM
Fri, Jul 3
72 °FPassing clouds.7 mph78%30.27 "HgN/A
10:50 AM72 °FThundershowers. Scattered clouds.8 mph78%30.27 "HgN/A
10:20 AM70 °FThundershowers. Scattered clouds.7 mph83%30.27 "HgN/A
9:50 AM68 °FThundershowers. Scattered clouds.2 mph88%30.27 "HgN/A
9:20 AM66 °FThundershowers. Scattered clouds.5 mph94%30.27 "HgN/A
8:50 AM66 °FThundershowers. Partly sunny.3 mph88%30.24 "HgN/A
8:20 AM68 °FThunderstorms. Broken clouds.3 mph83%30.27 "Hg6 mi
7:50 AM70 °FThundershowers. Partly sunny.3 mph73%30.24 "HgN/A
7:20 AM70 °FScattered clouds.9 mph73%30.24 "HgN/A
6:50 AM68 °FScattered clouds.1 mph78%30.21 "HgN/A
6:20 AM66 °FSunny.1 mph78%30.21 "Hg10 mi
5:50 AM66 °FPassing clouds.5 mph78%30.21 "HgN/A
9:50 PM
Thu, Jul 2
81 °FSunny.7 mph48%30.18 "Hg10 mi
9:20 PM82 °FSunny.9 mph45%30.15 "Hg10 mi
8:50 PM84 °FSunny.10 mph45%30.15 "Hg10 mi
8:20 PM86 °FSunny.10 mph43%30.15 "Hg10 mi
7:50 PM88 °FPassing clouds.7 mph43%30.15 "HgN/A
7:20 PM91 °FSunny.8 mph32%30.12 "Hg10 mi
6:50 PM91 °FSunny.8 mph30%30.15 "Hg10 mi
6:20 PM91 °FPassing clouds.9 mph34%30.12 "HgN/A
5:50 PM91 °FPassing clouds.9 mph36%30.15 "HgN/A
5:20 PM91 °FPassing clouds.9 mph36%30.12 "HgN/A
4:50 PM91 °FPassing clouds.9 mph34%30.15 "HgN/A
4:20 PM91 °FPassing clouds.9 mph34%30.15 "HgN/A
3:50 PM91 °FSunny.7 mph34%30.15 "Hg10 mi
3:20 PM91 °FPassing clouds.12 mph34%30.15 "HgN/A
2:50 PM91 °FSunny.12 mph36%30.15 "Hg10 mi
2:20 PM90 °FPassing clouds.9 mph38%30.15 "HgN/A
1:50 PM91 °FPassing clouds.10 mph36%30.15 "HgN/A
1:20 PM88 °FPassing clouds.8 mph38%30.15 "HgN/A
12:50 PM88 °FSunny.10 mph43%30.15 "Hg10 mi
12:20 PM88 °FPassing clouds.9 mph43%30.18 "HgN/A
Weather by CustomWeather, © 2015

See weather overviewHow to use our weather pages